Abilene, TX

4:45 AM CDT on September 26, 2017 (GMT -0500)
Abilene Regional

Weather History for KABI - October, 2011

Change the Weather History Date:

Thursday, October 27, 2011

  Actual Average Record
Temperature  
Mean Temperature 49 °F 62 °F  
Max Temperature 57 °F 74 °F 90 °F (1988)
Min Temperature 41 °F 51 °F 28 °F (1997)
Degree Days  
Heating Degree Days 16 5  
Month to date heating degree days 31 71  
Since 1 July heating degree days 31 82  
Cooling Degree Days 0 2  
Month to date cooling degree days 145 109  
Year to date cooling degree days 3487 2380  
Moisture  
Dew Point 43 °F    
Average Humidity 81    
Maximum Humidity 100    
Minimum Humidity 61    
Precipitation  
Precipitation 0.28 in 0.09 in 1.36 in (1991)
Month to date precipitation 4.09 2.66  
Year to date precipitation 14.72 21.86  
Sea Level Pressure  
Sea Level Pressure 30.09 in    
Wind  
Wind Speed 15 mph (North)    
Max Wind Speed 28 mph    
Max Gust Speed 35 mph    
Visibility 8 miles    
Events Rain    
T = Trace of Precipitation, MM = Missing Value Source: NWS Daily Summary

Daily Weather History Graph

Daily Weather History Graph

Search for Another Location

Airport or City:

Trip Planner

Search our weather history database for the weather conditions in past years. The results will help you decide how hot, cold, wet, or windy it might be!

Date:

Astronomy

Oct. 27, 2011 Rise Set
Actual Time 7:51 AM CDT 6:53 PM CDT
Civil Twilight 7:26 AM CDT 7:18 PM CDT
Nautical Twilight 6:57 AM CDT 7:47 PM CDT
Astronomical Twilight 6:29 AM CDT 8:15 PM CDT
Moon 8:49 AM CDT (10/27) 7:31 PM CDT (10/27)
Length of Visible Light 11h 51m
Length of Day
11h 01m
New Moon, 1% of the Moon is Illuminated
Oct 27
New Moon
Nov 2
First Quarter
Nov 10
Full
Nov 18
Last Quarter
Nov 25
New

Hourly Weather History & Observations

Time (CDT) Temp. Windchill Dew Point Humidity Pressure Visibility Wind Dir Wind Speed Gust Speed Precip Events Conditions
12:52 AM 57.0 °F - 46.0 °F 67% 29.91 in 10.0 mi NNE 6.9 mph - N/A   Clear
1:52 AM 55.0 °F - 45.0 °F 69% 29.93 in 10.0 mi North 11.5 mph - N/A   Clear
2:52 AM 55.9 °F - 44.1 °F 64% 29.96 in 10.0 mi North 15.0 mph - N/A   Overcast
3:52 AM 55.0 °F - 43.0 °F 64% 29.97 in 10.0 mi North 23.0 mph 29.9 mph N/A   Overcast
4:52 AM 50.0 °F - 39.0 °F 66% 29.95 in 10.0 mi NNE 15.0 mph 26.5 mph 0.00 in Rain Light Rain
5:52 AM 48.0 °F - 39.9 °F 74% 29.98 in 10.0 mi North 10.4 mph 19.6 mph 0.00 in   Overcast
6:52 AM 46.9 °F - 41.0 °F 80% 29.99 in 10.0 mi NNE 12.7 mph - 0.00 in Rain Light Rain
7:10 AM 46.4 °F 41.5 °F 41.0 °F 81% 30.01 in 10.0 mi NNE 10.4 mph - 0.00 in   Overcast
7:52 AM 46.9 °F - 42.1 °F 83% 30.02 in 10.0 mi North 15.0 mph - 0.00 in   Overcast
8:52 AM 46.0 °F 41.9 °F 44.1 °F 93% 30.02 in 8.0 mi NNE 8.1 mph - 0.02 in Rain Light Rain
9:03 AM 46.4 °F 41.5 °F 44.6 °F 93% 30.05 in 10.0 mi North 10.4 mph - 0.00 in Rain Light Rain
9:35 AM 46.4 °F 40.7 °F 46.4 °F 100% 30.06 in 10.0 mi NNE 12.7 mph - 0.00 in   Overcast
9:52 AM 46.9 °F - 46.0 °F 97% 30.04 in 10.0 mi NNE 10.4 mph - 0.00 in   Overcast
10:14 AM 46.4 °F 41.1 °F 44.6 °F 93% 30.07 in 10.0 mi North 11.5 mph - N/A   Overcast
10:52 AM 46.9 °F - 45.0 °F 93% 30.06 in 10.0 mi North 15.0 mph 20.7 mph N/A   Overcast
10:59 AM 46.4 °F 40.7 °F 44.6 °F 93% 30.08 in 10.0 mi North 12.7 mph - N/A   Overcast
11:34 AM 46.4 °F 40.1 °F 44.6 °F 93% 30.10 in 2.0 mi North 15.0 mph - 0.02 in Rain Rain
11:52 AM 46.0 °F 39.6 °F 45.0 °F 96% 30.08 in 2.0 mi North 15.0 mph - 0.05 in Rain Light Rain
12:04 PM 44.6 °F 36.4 °F 44.6 °F 100% 30.10 in 3.0 mi North 20.7 mph - 0.01 in   Overcast
12:11 PM 44.6 °F 37.4 °F 44.6 °F 100% 30.10 in 2.0 mi North 16.1 mph 24.2 mph 0.01 in   Overcast
12:52 PM 45.0 °F 37.9 °F 45.0 °F 100% 30.08 in 2.0 mi North 16.1 mph 25.3 mph 0.03 in   Overcast
1:52 PM 45.0 °F 37.6 °F 45.0 °F 100% 30.08 in 2.0 mi North 17.3 mph - 0.04 in   Overcast
2:38 PM 44.6 °F 36.1 °F 44.6 °F 100% 30.08 in 4.0 mi North 21.9 mph 26.5 mph 0.07 in Rain Light Rain
2:49 PM 44.6 °F 37.4 °F 44.6 °F 100% 30.09 in 2.0 mi North 16.1 mph 25.3 mph 0.12 in Rain Heavy Rain
2:52 PM 45.0 °F 37.6 °F 45.0 °F 100% 30.07 in 2.0 mi North 17.3 mph 25.3 mph 0.12 in Rain Rain
2:59 PM 44.6 °F 36.9 °F 44.6 °F 100% 30.08 in 3.0 mi North 18.4 mph - 0.01 in Rain Light Rain
3:52 PM 46.0 °F 39.0 °F 46.0 °F 100% 30.08 in 10.0 mi North 17.3 mph - 0.02 in Rain Light Rain
4:33 PM 44.6 °F 36.9 °F 44.6 °F 100% 30.11 in 10.0 mi North 18.4 mph - 0.00 in Rain Light Rain
4:52 PM 45.0 °F 37.1 °F 44.1 °F 97% 30.09 in 10.0 mi North 19.6 mph - 0.00 in   Overcast
5:52 PM 44.1 °F 36.5 °F 44.1 °F 100% 30.12 in 10.0 mi NNW 17.3 mph - 0.00 in Rain Light Rain
5:54 PM 44.6 °F 36.6 °F 42.8 °F 93% 30.12 in 10.0 mi NNW 19.6 mph - N/A   Overcast
6:52 PM 43.0 °F 34.0 °F 42.1 °F 97% 30.16 in 10.0 mi NNW 21.9 mph 26.5 mph N/A   Overcast
7:52 PM 44.1 °F 36.2 °F 42.1 °F 93% 30.18 in 10.0 mi NNW 18.4 mph - N/A   Overcast
8:17 PM 44.6 °F 38.4 °F 42.8 °F 93% 30.18 in 9.0 mi North 12.7 mph - N/A   Overcast
8:52 PM 44.1 °F 37.7 °F 42.1 °F 93% 30.19 in 10.0 mi North 12.7 mph - N/A   Overcast
9:52 PM 44.1 °F 37.1 °F 41.0 °F 89% 30.22 in 10.0 mi North 15.0 mph - N/A   Overcast
10:52 PM 42.1 °F 36.1 °F 41.0 °F 96% 30.23 in 10.0 mi NNW 10.4 mph - N/A   Mostly Cloudy
10:59 PM 42.8 °F 37.5 °F 41.0 °F 93% 30.23 in 10.0 mi NNW 9.2 mph - N/A   Scattered Clouds
11:06 PM 42.8 °F 38.6 °F 41.0 °F 93% 30.23 in 10.0 mi NNW 6.9 mph - N/A   Scattered Clouds
11:28 PM 41.0 °F 35.8 °F 39.2 °F 93% 30.23 in 10.0 mi NW 8.1 mph - N/A   Mostly Cloudy
11:36 PM 41.0 °F 36.4 °F 39.2 °F 93% 30.23 in 10.0 mi NNW 6.9 mph - N/A   Scattered Clouds
11:52 PM 41.0 °F 36.4 °F 39.9 °F 96% 30.24 in 10.0 mi NW 6.9 mph - N/A   Clear